Tracking 25734 objects as of 28-May-2022
HD Live streaming from Space Station
objects crossing your sky now

COSMOS 1275 DEB

Track COSMOS 1275 DEB now!
10-day predictions


NORAD ID: 17619
Int'l Code: 1981-053KR
Perigee: 814.6 km
Apogee: 845.2 km
Inclination: 82.9 °
Period: 101.4 minutes
Semi major axis: 7200 km
RCS: 0.0072 m2 (small)
Launch date: June 4, 1981
Source: Commonwealth of Independent States (former USSR) (CIS)
Launch site: PLESETSK MISSILE AND SPACE COMPLEX (PKMTR)

Note: This is SATELLITE DEBRIS
aabbcc
Your satellite tracking list
Your tracking list is empty




NASA's NSSDC Master Catalog

Two Line Element Set (TLE):
1 17619U 81053KN  22147.95824944  .00002603  00000-0  11965-2 0  9997
2 17619  82.9449 137.2919 0021240 327.2671  62.0503 14.20776975904109
Source of the keplerian elements: AFSPC